TimeCDT,TemperatureF,Dew PointF,Humidity,Sea Level PressureIn,VisibilityMPH,Wind Direction,Wind SpeedMPH,Gust SpeedMPH,PrecipitationIn,Events,Conditions,WindDirDegrees,DateUTC
12:53 AM,69.1,53.1,57,29.98,10.0,SSW,8.1,-,N/A,,Mostly Cloudy,200,2013-05-16 05:53:00
1:53 AM,69.1,54.0,58,29.97,10.0,SSW,6.9,-,N/A,,Mostly Cloudy,210,2013-05-16 06:53:00
2:53 AM,70.0,53.1,55,29.96,10.0,SSW,4.6,-,N/A,,Mostly Cloudy,200,2013-05-16 07:53:00
3:53 AM,69.1,54.0,58,29.97,10.0,SW,4.6,-,N/A,,Overcast,220,2013-05-16 08:53:00
4:53 AM,66.0,55.0,68,29.97,10.0,South,3.5,-,N/A,,Overcast,170,2013-05-16 09:53:00
5:53 AM,66.9,55.0,66,29.99,10.0,Calm,Calm,-,N/A,,Overcast,0,2013-05-16 10:53:00
6:53 AM,64.9,57.0,75,30.02,10.0,South,5.8,-,N/A,,Overcast,180,2013-05-16 11:53:00
7:53 AM,70.0,57.9,65,30.03,10.0,South,3.5,-,N/A,,Mostly Cloudy,170,2013-05-16 12:53:00
8:53 AM,75.0,57.0,53,30.03,10.0,West,8.1,-,N/A,,Mostly Cloudy,270,2013-05-16 13:53:00
9:53 AM,78.1,59.0,52,30.02,10.0,WSW,6.9,-,N/A,,Scattered Clouds,250,2013-05-16 14:53:00
10:53 AM,80.1,57.9,47,30.01,10.0,SSW,10.4,-,N/A,,Scattered Clouds,200,2013-05-16 15:53:00
11:53 AM,80.1,59.0,48,29.99,10.0,SW,9.2,-,N/A,,Scattered Clouds,230,2013-05-16 16:53:00
12:53 PM,84.0,57.9,41,29.98,10.0,SW,6.9,18.4,N/A,,Mostly Cloudy,230,2013-05-16 17:53:00
1:53 PM,84.0,57.9,41,29.97,10.0,Variable,6.9,-,N/A,,Mostly Cloudy,0,2013-05-16 18:53:00
2:53 PM,84.0,57.9,41,29.96,10.0,SSW,8.1,-,N/A,,Mostly Cloudy,210,2013-05-16 19:53:00
3:53 PM,84.0,55.9,38,29.94,10.0,SSW,8.1,-,N/A,,Mostly Cloudy,210,2013-05-16 20:53:00
4:53 PM,82.0,57.0,42,29.94,10.0,South,11.5,-,N/A,,Mostly Cloudy,190,2013-05-16 21:53:00
5:53 PM,81.0,57.0,44,29.93,10.0,SW,6.9,-,N/A,,Mostly Cloudy,220,2013-05-16 22:53:00
6:53 PM,79.0,55.9,45,29.93,10.0,SSW,5.8,-,N/A,,Mostly Cloudy,210,2013-05-16 23:53:00
7:53 PM,77.0,57.0,50,29.94,10.0,SW,4.6,-,N/A,,Mostly Cloudy,220,2013-05-17 00:53:00
8:53 PM,73.0,55.9,55,29.96,10.0,SSW,6.9,-,N/A,,Mostly Cloudy,210,2013-05-17 01:53:00
9:53 PM,71.1,55.0,57,29.98,10.0,SSW,3.5,-,N/A,,Mostly Cloudy,200,2013-05-17 02:53:00
10:53 PM,69.1,55.0,61,29.97,10.0,South,3.5,-,N/A,,Mostly Cloudy,180,2013-05-17 03:53:00
11:53 PM,66.0,55.9,70,29.98,10.0,SSE,3.5,-,N/A,,Mostly Cloudy,150,2013-05-17 04:53:00